DW6873 Weather Reports


Display with metric or nautical units.
time (UTC)temp
F
wind
direction
speed
MPH
gust
MPH
rain 1hr
in
rain 24hr
in
rain mn
in
humidity
%
barometer
mb
20260906094558 65 114 0.0 0.0 0.00 0.00 0.00 95 1008.7
20260906093057 66 114 0.0 0.0 0.00 0.00 0.00 95 1008.8
20260906091550 66 107 0.0 0.0 0.00 0.00 0.00 95 1008.9
20260906090050 66 132 0.0 0.0 0.00 0.00 0.00 95 1009.0
20260906084548 66 62 0.0 0.0 0.00 0.00 0.00 95 1008.8
20260906083048 66 84 0.0 0.0 0.00 0.00 0.00 94 1008.7
20260906081545 67 28 0.0 0.0 0.00 0.00 0.00 94 1008.6
20260906080043 67 60 0.0 0.0 0.00 0.00 0.00 94 1008.7
20260906074541 67 64 0.0 0.0 0.00 0.00 0.00 93 1008.8
20260906073039 68 64 0.0 0.0 0.00 0.00 0.00 93 1008.9
20260906071536 68 133 0.0 0.0 0.00 0.00 0.00 92 1009.1
20260906070034 68 104 0.0 0.0 0.00 0.00 0.00 92 1008.8
20260906064536 69 102 0.0 0.0 0.00 0.00 0.00 91 1008.8
20260906063031 69 98 0.0 0.0 0.00 0.00 0.00 90 1008.9
20260906061621 69 118 0.0 0.0 0.00 0.00 0.00 90 1008.9
20260906060109 69 75 0.0 0.0 0.00 0.00 0.00 90 1008.9
20260906054558 69 67 0.0 0.0 0.00 0.00 0.00 89 1008.9
20260906053056 69 99 0.0 0.0 0.00 0.00 0.00 89 1008.8
20260906051604 69 92 0.0 0.0 0.00 0.00 0.00 90 1008.9
20260906050057 69 82 0.0 0.0 0.00 0.00 0.00 90 1008.9
20260906044551 69 63 0.0 0.0 0.00 0.00 0.00 90 1009.0
20260906043048 70 76 0.0 0.0 0.00 0.00 0.00 89 1008.9
20260906041546 70 75 0.0 0.0 0.00 0.00 0.00 88 1008.6
20260906040047 70 134 0.0 0.0 0.00 0.00 0.00 88 1008.6
20260906034539 71 61 0.0 0.0 0.00 0.00 0.00 86 1008.6
20260906033038 71 65 0.0 0.0 0.00 0.00 0.00 83 1008.6
20260906031534 72 84 0.0 0.0 0.00 0.00 0.00 81 1008.4
20260906030031 73 60 0.0 0.0 0.00 0.00 0.00 82 1008.4
20260906024530 73 70 0.0 0.0 0.00 0.00 0.00 83 1008.2
20260906023106 73 59 0.0 0.0 0.00 0.00 0.00 80 1008.1
20260906021555 75 353 0.0 0.0 0.00 0.00 0.00 75 1007.8
20260906020024 76 58 0.0 0.0 0.00 0.00 0.00 74 1007.3
20260906014523 77 94 0.0 0.0 0.00 0.00 0.00 72 1007.0
20260906013033 79 98 0.0 0.0 0.00 0.00 0.00 68 1006.8
20260906011519 81 138 0.0 0.0 0.00 0.00 0.00 64 1006.7
20260906010020 83 160 0.0 0.0 0.00 0.00 0.00 61 1006.8
20260906004518 85 98 0.0 0.0 0.00 0.00 0.00 57 1007.0
20260906003048 87 115 0.0 1.0 0.00 0.00 0.00 54 1006.9
20260906001547 90 150 0.0 3.0 0.00 0.00 0.00 48 1006.7
20260906000045 91 133 0.0 0.0 0.00 0.00 0.00 45 1006.6
20260905234544 91 140 0.0 0.0 0.00 0.00 0.00 44 1006.7
20260905233045 92 143 0.0 0.0 0.00 0.00 0.00 43 1006.8
20260905231543 92 82 0.0 0.0 0.00 0.00 0.00 42 1006.6
20260905230040 92 176 0.0 0.0 0.00 0.00 0.00 43 1006.4
20260905224539 92 140 0.0 0.0 0.00 0.00 0.00 43 1006.1
20260905223039 92 113 0.0 0.0 0.00 0.00 0.00 42 1005.9
20260905221538 92 135 0.0 0.0 0.00 0.00 0.00 42 1006.1
20260905220036 92 101 0.0 0.0 0.00 0.00 0.00 42 1006.2
20260905214535 92 115 0.0 0.0 0.00 0.00 0.00 43 1006.5
20260905213031 92 121 0.0 0.0 0.00 0.00 0.00 43 1006.7
20260905211530 92 143 0.0 0.0 0.00 0.00 0.00 43 1006.7
20260905210110 92 134 0.0 0.0 0.00 0.00 0.00 43 1006.7
20260905204558 91 167 0.0 0.0 0.00 0.00 0.00 44 1006.6
20260905203026 91 146 0.0 0.0 0.00 0.00 0.00 44 1006.6
20260905201525 91 107 0.0 0.0 0.00 0.00 0.00 44 1006.7
20260905200028 90 149 0.0 0.0 0.00 0.00 0.00 45 1006.8
20260905194516 90 110 0.0 0.0 0.00 0.00 0.00 46 1006.8
20260905193013 90 109 0.0 0.0 0.00 0.00 0.00 46 1007.0
20260905191512 89 112 0.0 1.0 0.00 0.00 0.00 46 1007.1
20260905190051 89 104 0.0 0.0 0.00 0.00 0.00 45 1007.2
20260905184542 89 133 0.0 0.0 0.00 0.00 0.00 48 1007.2
20260905183007 88 171 0.0 0.0 0.00 0.00 0.00 47 1007.6
20260905181504 88 126 0.0 1.0 0.00 0.00 0.00 50 1007.7
20260905180032 88 136 0.0 0.0 0.00 0.00 0.00 50 1007.9
20260905174529 87 147 0.0 0.0 0.00 0.00 0.00 52 1008.0
20260905173024 86 134 0.0 0.0 0.00 0.00 0.00 52 1008.3
20260905171522 86 86 0.0 0.0 0.00 0.00 0.00 53 1008.2
20260905170020 83 144 0.0 0.0 0.00 0.00 0.00 58 1008.2
20260905164516 82 65 0.0 0.0 0.00 0.00 0.00 61 1008.4
20260905163013 82 70 0.0 0.0 0.00 0.00 0.00 60 1008.4
20260905161510 81 97 0.0 0.0 0.00 0.00 0.00 62 1008.5
20260905160016 80 103 0.0 0.0 0.00 0.00 0.00 64 1008.5
20260905154509 80 102 0.0 0.0 0.00 0.00 0.00 65 1008.4
20260905153002 78 110 0.0 0.0 0.00 0.00 0.00 69 1008.4
20260905151606 78 79 0.0 0.0 0.00 0.00 0.00 68 1008.3
20260905150058 78 89 0.0 0.0 0.00 0.00 0.00 67 1008.5
20260905144558 78 60 0.0 0.0 0.00 0.00 0.00 71 1008.4
20260905143052 77 104 0.0 0.0 0.00 0.00 0.00 70 1008.4
20260905141600 77 34 0.0 0.0 0.00 0.00 0.00 70 1008.7
20260905140050 74 352 0.0 0.0 0.00 0.00 0.00 76 1008.6
20260905134549 73 357 0.0 0.0 0.00 0.00 0.00 78 1008.5
20260905133045 72 311 0.0 0.0 0.00 0.00 0.00 78 1008.4
20260905131539 0 0.0 0.0 0.00 0.00 0.00 1008.1
20260905130034 0 0.0 0.0 0.00 0.00 0.00 1006.7
20260905124531 0 0.0 0.0 0.00 0.00 0.00 1006.3
20260905123025 0 0.0 0.0 0.00 0.00 0.00 1006.3
20260905121519 0 0.0 0.0 0.00 0.00 0.00 1006.1
20260905120019 0 0.0 0.0 0.00 0.00 0.00 1006.0
20260905114512 0 0.0 0.0 0.00 0.00 0.00 1005.8
20260905113005 0 0.0 0.0 0.00 0.00 0.00 1005.7
20260905111559 0 0.0 0.0 0.00 0.00 0.00 1005.7
20260905110056 0 0.0 0.0 0.00 0.00 0.00 1005.8
20260905104554 0 0.0 0.0 0.00 0.00 0.00 1005.7
20260905103050 0 0.0 0.0 0.00 0.00 0.00 1005.6
20260905101512 0 0.0 0.0 0.00 0.00 0.00 1005.7
20260905100009 68 120 0.0 0.0 0.00 0.00 0.00 83 1005.6